Location: Linz
(48.3300°N, 14.3000°E)
Time: 01:55:29
(UTC+01:00)

N. Korean satellite - Pass Details

Date: 20 November 2017
Orbit: 460 x 515 km, 97.2° (Epoch: 17 November)

Event Time Altitude Azimuth Distance (km) Brightness Sun altitude
Rises 17:42:48 0° 159° (SSE) 2,494 10.1 -13.8°
Reaches altitude 10° 17:44:50 10° 156° (SSE) 1,629 9.1 -14.1°
Maximum altitude 17:48:18 66° 74° (ENE) 527 6.4 -14.6°
Drops below altitude 10° 17:51:52 10° 353° (N) 1,672 9.2 -15.2°
Sets 17:53:58 0° 350° (N) 2,568 10.2 -15.6°
